HS1WDC-1 Weather Reports


time (UTC)temp
F
wind
direction
speed
knots
gust
knots
rain 1hr
in
rain 24hr
in
rain mn
in
humidity
%
barometer
mb
20260508070908 94 0 0.0 0.0 0.00 0.00 0.00 53 1006.0
20260508065344 96 0 0.0 0.0 0.00 0.00 0.00 52 1006.0
20260508063819 96 0 0.0 0.0 0.00 0.00 0.00 52 1007.0
20260508062254 97 0 0.0 0.0 0.00 0.00 0.00 52 1007.0
20260508060730 100 0 0.0 0.0 0.00 0.00 0.00 47 1008.0
20260508055205 102 0 0.0 0.0 0.00 0.00 0.00 42 1007.0
20260508053641 105 0 0.0 0.0 0.00 0.00 0.00 42 1007.0
20260508052117 106 0 0.0 0.0 0.00 0.00 0.00 41 1007.0
20260508050552 108 0 0.0 0.0 0.00 0.00 0.00 38 1007.0
20260508045028 107 0 0.0 0.0 0.00 0.00 0.00 39 1007.0
20260508043504 106 0 0.0 0.0 0.00 0.00 0.00 41 1008.0
20260508041939 105 0 0.0 0.0 0.00 0.00 0.00 42 1008.0
20260508040415 105 0 0.0 0.0 0.00 0.00 0.00 41 1008.0
20260508034850 103 0 0.0 0.0 0.00 0.00 0.00 43 1008.0
20260508033326 102 0 0.0 0.0 0.00 0.00 0.00 46 1008.0
20260508031802 102 0 0.0 0.0 0.00 0.00 0.00 47 1009.0
20260508030238 101 0 0.0 0.0 0.00 0.00 0.00 49 1009.0
20260508024713 100 0 0.0 0.0 0.00 0.00 0.00 50 1009.0
20260508023149 99 0 0.0 0.0 0.00 0.00 0.00 52 1009.0
20260508021625 100 0 0.0 0.0 0.00 0.00 0.00 50 1009.0
20260508020101 99 0 0.0 0.0 0.00 0.00 0.00 52 1009.0
20260508014536 98 0 0.0 0.0 0.00 0.00 0.00 54 1009.0
20260508013011 98 0 0.0 0.0 0.00 0.00 0.00 54 1009.0
20260508011447 96 0 0.0 0.0 0.00 0.00 0.00 57 1009.0
20260508005922 95 0 0.0 0.0 0.00 0.00 0.00 59 1009.0
20260508004358 94 0 0.0 0.0 0.00 0.00 0.00 59 1008.0
20260508002834 94 0 0.0 0.0 0.00 0.00 0.00 60 1008.0
20260508001309 93 0 0.0 0.0 0.00 0.00 0.00 62 1008.0
20260507235745 93 0 0.0 0.0 0.00 0.00 0.00 63 1008.0
20260507234220 92 0 0.0 0.0 0.00 0.00 0.00 65 1008.0
20260507232656 92 0 0.0 0.0 0.00 0.00 0.00 64 1008.0
20260507231132 91 0 0.0 0.0 0.00 0.00 0.00 66 1007.0
20260507225607 92 0 0.0 0.0 0.00 0.00 0.00 65 1007.0
20260507224043 92 0 0.0 0.0 0.00 0.00 0.00 64 1007.0
20260507222518 92 0 0.0 0.0 0.00 0.00 0.00 64 1007.0
20260507220954 93 0 0.0 0.0 0.00 0.00 0.00 63 1007.0
20260507215430 92 0 0.0 0.0 0.00 0.00 0.00 63 1007.0
20260507213906 92 0 0.0 0.0 0.00 0.00 0.00 64 1007.0
20260507212341 92 0 0.0 0.0 0.00 0.00 0.00 64 1007.0
20260507210817 93 0 0.0 0.0 0.00 0.00 0.00 62 1006.0
20260507205253 92 0 0.0 0.0 0.00 0.00 0.00 63 1006.0
20260507203728 93 0 0.0 0.0 0.00 0.00 0.00 60 1006.0
20260507202204 93 0 0.0 0.0 0.00 0.00 0.00 61 1006.0
20260507200639 92 0 0.0 0.0 0.00 0.00 0.00 62 1006.0
20260507195049 92 0 0.0 0.0 0.00 0.00 0.00 63 1006.0
20260507193525 93 0 0.0 0.0 0.00 0.00 0.00 61 1006.0
20260507192001 93 0 0.0 0.0 0.00 0.00 0.00 61 1006.0
20260507190436 93 0 0.0 0.0 0.00 0.00 0.00 59 1007.0
20260507184912 93 0 0.0 0.0 0.00 0.00 0.00 59 1007.0
20260507183348 93 0 0.0 0.0 0.00 0.00 0.00 59 1007.0
20260507181823 93 0 0.0 0.0 0.00 0.00 0.00 57 1007.0
20260507180259 94 0 0.0 0.0 0.00 0.00 0.00 57 1007.0
20260507174735 94 0 0.0 0.0 0.00 0.00 0.00 56 1007.0
20260507173210 94 0 0.0 0.0 0.00 0.00 0.00 55 1007.0
20260507171646 95 0 0.0 0.0 0.00 0.00 0.00 53 1008.0
20260507170122 95 0 0.0 0.0 0.00 0.00 0.00 54 1008.0
20260507164557 93 0 0.0 0.0 0.00 0.00 0.00 55 1008.0
20260507163033 95 0 0.0 0.0 0.00 0.00 0.00 52 1008.0
20260507161509 95 0 0.0 0.0 0.00 0.00 0.00 53 1008.0
20260507155945 95 0 0.0 0.0 0.00 0.00 0.00 51 1009.0
20260507154420 95 0 0.0 0.0 0.00 0.00 0.00 51 1009.0
20260507152856 96 0 0.0 0.0 0.00 0.00 0.00 52 1009.0
20260507151332 95 0 0.0 0.0 0.00 0.00 0.00 53 1009.0
20260507145807 95 0 0.0 0.0 0.00 0.00 0.00 52 1009.0
20260507144243 95 0 0.0 0.0 0.00 0.00 0.00 52 1009.0
20260507142719 97 0 0.0 0.0 0.00 0.00 0.00 50 1008.0
20260507141154 96 0 0.0 0.0 0.00 0.00 0.00 50 1008.0
20260507135630 98 0 0.0 0.0 0.00 0.00 0.00 48 1007.0
20260507134106 98 0 0.0 0.0 0.00 0.00 0.00 48 1007.0
20260507132541 97 0 0.0 0.0 0.00 0.00 0.00 50 1007.0
20260507131017 97 0 0.0 0.0 0.00 0.00 0.00 52 1006.0
20260507125452 97 0 0.0 0.0 0.00 0.00 0.00 51 1006.0
20260507123926 97 0 0.0 0.0 0.00 0.00 0.00 50 1005.0
20260507122401 98 0 0.0 0.0 0.00 0.00 0.00 51 1005.0
20260507120836 98 0 0.0 0.0 0.00 0.00 0.00 49 1005.0
20260507115311 98 0 0.0 0.0 0.00 0.00 0.00 48 1005.0
20260507113745 99 0 0.0 0.0 0.00 0.00 0.00 47 1005.0
20260507112219 99 0 0.0 0.0 0.00 0.00 0.00 47 1005.0
20260507110652 99 0 0.0 0.0 0.00 0.00 0.00 45 1005.0
20260507105126 100 0 0.0 0.0 0.00 0.00 0.00 44 1004.0
20260507103602 100 0 0.0 0.0 0.00 0.00 0.00 44 1004.0
20260507102036 102 0 0.0 0.0 0.00 0.00 0.00 41 1004.0
20260507100511 103 0 0.0 0.0 0.00 0.00 0.00 40 1004.0
20260507094946 105 0 0.0 0.0 0.00 0.00 0.00 41 1004.0
20260507093421 106 0 0.0 0.0 0.00 0.00 0.00 39 1003.0
20260507091856 106 0 0.0 0.0 0.00 0.00 0.00 39 1003.0
20260507090331 105 0 0.0 0.0 0.00 0.00 0.00 40 1002.0
20260507084807 105 0 0.0 0.0 0.00 0.00 0.00 42 1003.0
20260507083242 105 0 0.0 0.0 0.00 0.00 0.00 42 1003.0
20260507081718 105 0 0.0 0.0 0.00 0.00 0.00 42 1003.0
20260507080153 105 0 0.0 0.0 0.00 0.00 0.00 40 1003.0
20260507074629 107 0 0.0 0.0 0.00 0.00 0.00 38 1003.0
20260507073104 107 0 0.0 0.0 0.00 0.00 0.00 38 1004.0
20260507071539 107 0 0.0 0.0 0.00 0.00 0.00 38 1004.0